Tracking 25620 objects as of 18-May-2022
HD Live streaming from Space Station
objects crossing your sky now

TITAN 3C TRANSTAGE R/B

Track TITAN 3C TRANSTAGE R/B now!


NORAD ID: 2868
Int'l Code: 1967-066G
Perigee: 33,224.0 km
Apogee: 33,844.3 km
Inclination: 1.6 °
Period: 1,322.2 minutes
Semi major axis: 39905 km
RCS: 1.6554 m2 (large)
Launch date: July 1, 1967
Source: United States (US)
Launch site: AIR FORCE EASTERN TEST RANGE (AFETR)

Note: This is a ROCKET BODY
aabbcc
Your satellite tracking list
Your tracking list is empty




NASA's NSSDC Master Catalog

Two Line Element Set (TLE):
1 02868U 67066G   22137.89525325 -.00000100  00000-0  00000-0 0  9995
2 02868   1.5683 253.6937 0077725 353.0883   4.3504  1.08908078112081
Source of the keplerian elements: AFSPC